,,PA_Meas_PMT16A,,PR_Meas_QMR101_102,,RH_Meas_QMH101,,SR_Meas_QMS101,,TA_Meas_QMH101,,GenWind,,GenWind,
time,status,PA,status,PR,status,RH,status,SR,status,TA,status,DirAvg,status,SpdAvg,
2013-11-20, 00:00:04,VALID,917.939,VALID,0,VALID,97.3053,VALID,0,VALID,19.1568,VALID,82,VALID,0,
2013-11-20, 00:01:04,VALID,917.92,VALID,0,VALID,97.2824,VALID,0,VALID,19.1373,VALID,82,VALID,0,
2013-11-20, 00:02:04,VALID,917.894,VALID,0,VALID,97.3053,VALID,0.107441,VALID,19.1373,VALID,82,VALID,0,
2013-11-20, 00:03:04,VALID,917.904,VALID,0,VALID,97.29,VALID,0,VALID,19.1583,VALID,82,VALID,0,
2013-11-20, 00:04:04,VALID,917.886,VALID,0,VALID,97.3053,VALID,0,VALID,19.1763,VALID,82,VALID,0,
2013-11-20, 00:05:04,VALID,917.88,VALID,0,VALID,97.2824,VALID,0,VALID,19.1763,VALID,82,VALID,0,
2013-11-20, 00:06:04,VALID,917.882,VALID,0,VALID,97.3205,VALID,0,VALID,19.1958,VALID,82,VALID,0,
2013-11-20, 00:07:04,VALID,917.842,VALID,0,VALID,97.3129,VALID,0,VALID,19.1763,VALID,82,VALID,0,
2013-11-20, 00:08:04,VALID,917.852,VALID,0,VALID,97.3129,VALID,0,VALID,19.1763,VALID,82,VALID,0,
2013-11-20, 00:09:04,VALID,917.839,VALID,0,VALID,97.3129,VALID,0.107441,VALID,19.1763,VALID,82,VALID,0,
2013-11-20, 00:10:04,VALID,917.82,VALID,0,VALID,97.3129,VALID,0,VALID,19.1373,VALID,82,VALID,0,
2013-11-20, 00:11:04,VALID,917.782,VALID,0,VALID,97.3205,VALID,0,VALID,19.1373,VALID,82,VALID,0,
2013-11-20, 00:12:04,VALID,917.767,VALID,0.2,VALID,97.3281,VALID,0,VALID,19.1178,VALID,82,VALID,0,
2013-11-20, 00:13:04,VALID,917.757,VALID,0,VALID,97.3053,VALID,0,VALID,19.1583,VALID,82,VALID,0,
2013-11-20, 00:14:04,VALID,917.713,VALID,0,VALID,97.3053,VALID,0,VALID,19.1583,VALID,82,VALID,0,
2013-11-20, 00:15:04,VALID,917.713,VALID,0,VALID,97.3129,VALID,0.107441,VALID,19.1373,VALID,82,VALID,0,
2013-11-20, 00:16:04,VALID,917.693,VALID,0,VALID,97.3053,VALID,0,VALID,19.1373,VALID,82,VALID,0,
2013-11-20, 00:17:04,VALID,917.679,VALID,0,VALID,97.3281,VALID,0,VALID,19.1373,VALID,82,VALID,0,
2013-11-20, 00:18:04,VALID,917.655,VALID,0,VALID,97.3205,VALID,0.107441,VALID,19.1373,VALID,82,VALID,0,
2013-11-20, 00:19:04,VALID,917.667,VALID,0,VALID,97.3129,VALID,0,VALID,19.1178,VALID,82,VALID,0,
2013-11-20, 00:20:04,VALID,917.654,VALID,0.2,VALID,97.3281,VALID,0,VALID,19.1373,VALID,82,VALID,0,
2013-11-20, 00:21:04,VALID,917.666,VALID,0,VALID,97.3205,VALID,0,VALID,19.1763,VALID,82,VALID,0,
2013-11-20, 00:22:05,VALID,917.646,VALID,0,VALID,97.3053,VALID,0,VALID,19.1568,VALID,83,VALID,0,
2013-11-20, 00:23:05,VALID,917.636,VALID,0,VALID,97.3053,VALID,0,VALID,19.1568,VALID,82,VALID,0,
2013-11-20, 00:24:05,VALID,917.625,VALID,0,VALID,97.29,VALID,0,VALID,19.1178,VALID,82,VALID,0,
2013-11-20, 00:25:05,VALID,917.615,VALID,0,VALID,97.3053,VALID,0,VALID,19.1373,VALID,82,VALID,0,
2013-11-20, 00:26:05,VALID,917.59,VALID,0,VALID,97.3205,VALID,0.107441,VALID,19.1373,VALID,82,VALID,0,
2013-11-20, 00:27:05,VALID,917.566,VALID,0,VALID,97.3129,VALID,0,VALID,19.1373,VALID,82,VALID,0,
2013-11-20, 00:28:05,VALID,917.552,VALID,0,VALID,97.3358,VALID,0,VALID,19.1778,VALID,82,VALID,0,
2013-11-20, 00:29:05,VALID,917.541,VALID,0,VALID,97.3129,VALID,0.107441,VALID,19.1373,VALID,82,VALID,0,
2013-11-20, 00:30:05,VALID,917.539,VALID,0,VALID,97.3281,VALID,0,VALID,19.1583,VALID,82,VALID,0,
2013-11-20, 00:31:05,VALID,917.537,VALID,0,VALID,97.3281,VALID,0.107441,VALID,19.1373,VALID,82,VALID,0,
2013-11-20, 00:32:05,VALID,917.515,VALID,0,VALID,97.3281,VALID,0,VALID,19.1178,VALID,82,VALID,0,
2013-11-20, 00:33:05,VALID,917.47,VALID,0,VALID,97.3129,VALID,0.107441,VALID,19.0969,VALID,82,VALID,0,
2013-11-20, 00:34:05,VALID,917.484,VALID,0,VALID,97.3129,VALID,0,VALID,19.1568,VALID,82,VALID,0,
2013-11-20, 00:35:05,VALID,917.492,VALID,0.2,VALID,97.3358,VALID,0,VALID,19.1178,VALID,82,VALID,0,
2013-11-20, 00:36:05,VALID,917.457,VALID,0,VALID,97.3281,VALID,0,VALID,19.1178,VALID,81,VALID,0,
2013-11-20, 00:37:05,VALID,917.437,VALID,0,VALID,97.3053,VALID,0.107441,VALID,19.1178,VALID,82,VALID,0,
2013-11-20, 00:38:05,VALID,917.415,VALID,0,VALID,97.3205,VALID,0.107441,VALID,19.1568,VALID,82,VALID,0,
2013-11-20, 00:39:05,VALID,917.416,VALID,0,VALID,97.3281,VALID,0.107441,VALID,19.1373,VALID,82,VALID,0,
2013-11-20, 00:40:05,VALID,917.436,VALID,0,VALID,97.3281,VALID,0.107441,VALID,19.1568,VALID,82,VALID,0,
2013-11-20, 00:41:05,VALID,917.421,VALID,0,VALID,97.3358,VALID,0,VALID,19.0983,VALID,82,VALID,0,
2013-11-20, 00:42:05,VALID,917.444,VALID,0,VALID,97.3434,VALID,0.107441,VALID,19.0983,VALID,82,VALID,0,
2013-11-20, 00:43:05,VALID,917.382,VALID,0,VALID,97.3434,VALID,0.107441,VALID,19.0983,VALID,82,VALID,0,
2013-11-20, 00:44:05,VALID,917.367,VALID,0,VALID,97.3358,VALID,0,VALID,19.0983,VALID,82,VALID,0,
2013-11-20, 00:45:05,VALID,917.35,VALID,0,VALID,97.3281,VALID,0,VALID,19.0983,VALID,82,VALID,0,
2013-11-20, 00:46:05,VALID,917.321,VALID,0,VALID,97.3358,VALID,0,VALID,19.0593,VALID,82,VALID,0,
2013-11-20, 00:47:05,VALID,917.345,VALID,0,VALID,97.3205,VALID,0.107441,VALID,19.0998,VALID,82,VALID,0,
2013-11-20, 00:48:05,VALID,917.345,VALID,0,VALID,97.3358,VALID,0,VALID,19.0998,VALID,82,VALID,0,
2013-11-20, 00:49:05,VALID,917.348,VALID,0,VALID,97.3281,VALID,0,VALID,19.0788,VALID,82,VALID,0,
2013-11-20, 00:50:05,VALID,917.347,VALID,0,VALID,97.3358,VALID,0.107441,VALID,19.0983,VALID,66,VALID,0,
2013-11-20, 00:51:05,VALID,917.33,VALID,0,VALID,97.3281,VALID,0,VALID,19.0788,VALID,332,VALID,0,
2013-11-20, 00:52:05,VALID,917.352,VALID,0,VALID,97.3586,VALID,0,VALID,19.0593,VALID,339,VALID,0,
2013-11-20, 00:53:05,VALID,917.332,VALID,0,VALID,97.3586,VALID,0,VALID,19.0593,VALID,3,VALID,0,
2013-11-20, 00:54:05,VALID,917.301,VALID,0,VALID,97.3281,VALID,0,VALID,19.0608,VALID,337,VALID,0,
2013-11-20, 00:55:05,VALID,917.279,VALID,0,VALID,97.3434,VALID,0,VALID,19.0384,VALID,3,VALID,0,
2013-11-20, 00:56:05,VALID,917.288,VALID,0,VALID,97.3434,VALID,0.107441,VALID,19.0593,VALID,20,VALID,0,
2013-11-20, 00:57:05,VALID,917.25,VALID,0,VALID,97.3434,VALID,0,VALID,19.0803,VALID,353,VALID,0,
2013-11-20, 00:58:05,VALID,917.231,VALID,0,VALID,97.351,VALID,0,VALID,19.0398,VALID,344,VALID,0,
2013-11-20, 00:59:05,VALID,917.204,VALID,0,VALID,97.351,VALID,0,VALID,19.0398,VALID,350,VALID,0,
2013-11-20, 01:00:05,VALID,917.188,VALID,0,VALID,97.3434,VALID,0,VALID,19.0398,VALID,348,VALID,0,
2013-11-20, 01:01:05,VALID,917.122,VALID,0,VALID,97.3358,VALID,0,VALID,19.0203,VALID,360,VALID,0,
2013-11-20, 01:02:05,VALID,917.164,VALID,0,VALID,97.3281,VALID,0,VALID,19.0413,VALID,341,VALID,0,
2013-11-20, 01:03:05,VALID,917.142,VALID,0,VALID,97.3434,VALID,0,VALID,19.0203,VALID,347,VALID,0,
2013-11-20, 01:04:05,VALID,917.157,VALID,0,VALID,97.3586,VALID,0,VALID,19.0203,VALID,316,VALID,0,
2013-11-20, 01:05:05,VALID,917.166,VALID,0,VALID,97.3434,VALID,0,VALID,19.0008,VALID,316,VALID,0,
2013-11-20, 01:06:05,VALID,917.165,VALID,0,VALID,97.3586,VALID,0,VALID,19.0398,VALID,319,VALID,0,
2013-11-20, 01:07:05,VALID,917.176,VALID,0,VALID,97.3434,VALID,0,VALID,19.0398,VALID,320,VALID,0,
2013-11-20, 01:08:05,VALID,917.155,VALID,0,VALID,97.3434,VALID,0,VALID,19.0398,VALID,317,VALID,0,
2013-11-20, 01:09:05,VALID,917.144,VALID,0,VALID,97.3739,VALID,0,VALID,19.0803,VALID,317,VALID,0,
2013-11-20, 01:10:05,VALID,917.136,VALID,0,VALID,97.3281,VALID,0,VALID,19.0608,VALID,317,VALID,0,
2013-11-20, 01:11:05,VALID,917.114,VALID,0,VALID,97.3586,VALID,0,VALID,19.0593,VALID,317,VALID,0,
2013-11-20, 01:12:05,VALID,917.105,VALID,0,VALID,97.3434,VALID,0,VALID,19.0398,VALID,357,VALID,0,
2013-11-20, 01:13:05,VALID,917.097,VALID,0,VALID,97.3586,VALID,0,VALID,19.0593,VALID,359,VALID,0,
2013-11-20, 01:14:05,VALID,917.055,VALID,0,VALID,97.3586,VALID,0,VALID,19.0608,VALID,345,VALID,0,
2013-11-20, 01:15:05,VALID,917.018,VALID,0,VALID,97.3663,VALID,0,VALID,19.0413,VALID,358,VALID,0,
2013-11-20, 01:16:05,VALID,917.001,VALID,0.2,VALID,97.3663,VALID,0,VALID,19.0203,VALID,350,VALID,0,
2013-11-20, 01:17:05,VALID,916.995,VALID,0,VALID,97.3586,VALID,0,VALID,19.0203,VALID,358,VALID,0,
2013-11-20, 01:18:05,VALID,916.966,VALID,0,VALID,97.351,VALID,0,VALID,19.0203,VALID,340,VALID,0,
2013-11-20, 01:19:05,VALID,916.95,VALID,0,VALID,97.3586,VALID,0,VALID,19.0218,VALID,340,VALID,0,
2013-11-20, 01:20:05,VALID,916.957,VALID,0,VALID,97.351,VALID,0,VALID,19.0203,VALID,340,VALID,0,
2013-11-20, 01:21:05,VALID,916.959,VALID,0,VALID,97.3586,VALID,0,VALID,19.0203,VALID,340,VALID,0,
2013-11-20, 01:22:05,VALID,916.967,VALID,0,VALID,97.351,VALID,0,VALID,19.0413,VALID,340,VALID,0,
2013-11-20, 01:23:05,VALID,916.943,VALID,0,VALID,97.3434,VALID,0,VALID,19.0203,VALID,340,VALID,0,
2013-11-20, 01:24:05,VALID,916.954,VALID,0,VALID,97.3586,VALID,0,VALID,19.0398,VALID,340,VALID,0,
2013-11-20, 01:25:05,VALID,916.897,VALID,0,VALID,97.3434,VALID,0,VALID,19.0203,VALID,340,VALID,0,
2013-11-20, 01:26:05,VALID,916.908,VALID,0,VALID,97.3586,VALID,0,VALID,19.0398,VALID,340,VALID,0,
2013-11-20, 01:27:05,VALID,916.88,VALID,0,VALID,97.3586,VALID,0,VALID,19.0398,VALID,340,VALID,0,
2013-11-20, 01:28:05,VALID,916.872,VALID,0,VALID,97.3586,VALID,0,VALID,19.0008,VALID,340,VALID,0,
2013-11-20, 01:29:05,VALID,916.852,VALID,0,VALID,97.3586,VALID,0,VALID,19.0203,VALID,340,VALID,0,
2013-11-20, 01:30:05,VALID,916.811,VALID,0,VALID,97.3586,VALID,0,VALID,19.0413,VALID,340,VALID,0,
2013-11-20, 01:31:05,VALID,916.791,VALID,0,VALID,97.3739,VALID,0,VALID,19.0218,VALID,340,VALID,0,
2013-11-20, 01:32:05,VALID,916.773,VALID,0.2,VALID,97.3815,VALID,0,VALID,19.0008,VALID,340,VALID,0,
2013-11-20, 01:33:05,VALID,916.752,VALID,0,VALID,97.3663,VALID,0,VALID,19.0218,VALID,355,VALID,0,
2013-11-20, 01:34:05,VALID,916.723,VALID,0,VALID,97.3663,VALID,0,VALID,19.0023,VALID,355,VALID,0,
2013-11-20, 01:35:05,VALID,916.676,VALID,0,VALID,97.3663,VALID,0,VALID,18.9619,VALID,355,VALID,0,
2013-11-20, 01:36:05,VALID,916.666,VALID,0,VALID,97.3663,VALID,0,VALID,18.9814,VALID,356,VALID,0,
2013-11-20, 01:37:05,VALID,916.665,VALID,0,VALID,97.3815,VALID,0,VALID,18.9424,VALID,356,VALID,0,
2013-11-20, 01:38:05,VALID,916.67,VALID,0,VALID,97.3815,VALID,0,VALID,18.9424,VALID,355,VALID,0,
2013-11-20, 01:39:05,VALID,916.644,VALID,0,VALID,97.3815,VALID,0,VALID,18.9438,VALID,356,VALID,0,
2013-11-20, 01:40:05,VALID,916.631,VALID,0,VALID,97.3891,VALID,0,VALID,18.9034,VALID,355,VALID,0,
2013-11-20, 01:41:05,VALID,916.612,VALID,0,VALID,97.3663,VALID,0,VALID,18.9438,VALID,355,VALID,0,
2013-11-20, 01:42:05,VALID,916.636,VALID,0,VALID,97.3815,VALID,0,VALID,18.9633,VALID,355,VALID,0,
2013-11-20, 01:43:05,VALID,916.599,VALID,0,VALID,97.3586,VALID,0,VALID,18.9243,VALID,325,VALID,0,
2013-11-20, 01:44:05,VALID,916.559,VALID,0,VALID,97.3815,VALID,0,VALID,18.9034,VALID,312,VALID,0,
2013-11-20, 01:45:05,VALID,916.547,VALID,0,VALID,97.3891,VALID,0,VALID,18.9243,VALID,321,VALID,0,
2013-11-20, 01:46:05,VALID,916.509,VALID,0,VALID,97.3739,VALID,0,VALID,18.9243,VALID,20,VALID,0,
2013-11-20, 01:47:05,VALID,916.493,VALID,0,VALID,97.3739,VALID,0,VALID,18.9243,VALID,41,VALID,0,
2013-11-20, 01:48:05,VALID,916.462,VALID,0,VALID,97.3663,VALID,0,VALID,18.9438,VALID,12,VALID,0,
2013-11-20, 01:49:05,VALID,916.426,VALID,0,VALID,97.351,VALID,0,VALID,18.9633,VALID,28,VALID,0,
2013-11-20, 01:50:05,VALID,916.415,VALID,0,VALID,97.351,VALID,0,VALID,18.9633,VALID,44,VALID,0,
2013-11-20, 01:51:05,VALID,916.432,VALID,0,VALID,97.3663,VALID,0,VALID,18.9438,VALID,34,VALID,0,
2013-11-20, 01:52:05,VALID,916.405,VALID,0,VALID,97.3358,VALID,0,VALID,18.9229,VALID,30,VALID,0,
2013-11-20, 01:53:05,VALID,916.436,VALID,0,VALID,97.351,VALID,0,VALID,18.9424,VALID,26,VALID,0,
2013-11-20, 01:54:05,VALID,916.441,VALID,0,VALID,97.3663,VALID,0,VALID,18.9438,VALID,285,VALID,0,
2013-11-20, 01:55:05,VALID,916.432,VALID,0,VALID,97.3586,VALID,0,VALID,18.9438,VALID,285,VALID,0,
2013-11-20, 01:56:05,VALID,916.413,VALID,0,VALID,97.351,VALID,0,VALID,18.9438,VALID,285,VALID,0,
2013-11-20, 01:57:05,VALID,916.402,VALID,0,VALID,97.3434,VALID,0,VALID,18.9229,VALID,285,VALID,0,
2013-11-20, 01:58:05,VALID,916.389,VALID,0,VALID,97.3281,VALID,0,VALID,18.9633,VALID,285,VALID,0,
2013-11-20, 01:59:05,VALID,916.322,VALID,0,VALID,97.3586,VALID,0,VALID,18.9243,VALID,58,VALID,0,
2013-11-20, 02:00:05,VALID,916.331,VALID,0,VALID,97.3434,VALID,0,VALID,18.9048,VALID,58,VALID,0,
2013-11-20, 02:01:05,VALID,916.313,VALID,0,VALID,97.3586,VALID,0,VALID,18.9034,VALID,65,VALID,0,
2013-11-20, 02:02:05,VALID,916.279,VALID,0,VALID,97.3358,VALID,0,VALID,18.9243,VALID,55,VALID,0,
2013-11-20, 02:03:05,VALID,916.256,VALID,0,VALID,97.3434,VALID,0,VALID,18.9034,VALID,35,VALID,0,
2013-11-20, 02:04:05,VALID,916.249,VALID,0,VALID,97.3281,VALID,0,VALID,18.9048,VALID,45,VALID,0,
2013-11-20, 02:05:05,VALID,916.24,VALID,0,VALID,97.3358,VALID,0,VALID,18.8644,VALID,61,VALID,0,
2013-11-20, 02:06:05,VALID,916.221,VALID,0,VALID,97.3205,VALID,0,VALID,18.8853,VALID,59,VALID,0,
2013-11-20, 02:07:05,VALID,916.179,VALID,0,VALID,97.3434,VALID,0,VALID,18.8853,VALID,56,VALID,0,
2013-11-20, 02:08:05,VALID,916.149,VALID,0,VALID,97.351,VALID,0,VALID,18.8658,VALID,57,VALID,0,
2013-11-20, 02:09:05,VALID,916.118,VALID,0,VALID,97.3358,VALID,0,VALID,18.8658,VALID,57,VALID,0,
2013-11-20, 02:10:05,VALID,916.069,VALID,0,VALID,97.3434,VALID,0.107441,VALID,18.8268,VALID,63,VALID,0,
2013-11-20, 02:11:05,VALID,916.109,VALID,0,VALID,97.351,VALID,0,VALID,18.8268,VALID,42,VALID,0,
2013-11-20, 02:12:05,VALID,916.083,VALID,0,VALID,97.3281,VALID,0,VALID,18.8059,VALID,32,VALID,0,
2013-11-20, 02:13:05,VALID,916.082,VALID,0,VALID,97.3205,VALID,0,VALID,18.8449,VALID,32,VALID,0,
2013-11-20, 02:14:05,VALID,916.119,VALID,0,VALID,97.3205,VALID,0,VALID,18.8463,VALID,32,VALID,0,
2013-11-20, 02:15:05,VALID,916.14,VALID,0,VALID,97.3129,VALID,0,VALID,18.8254,VALID,32,VALID,0,
2013-11-20, 02:16:05,VALID,916.096,VALID,0,VALID,97.29,VALID,0,VALID,18.8463,VALID,32,VALID,0,
2013-11-20, 02:17:05,VALID,916.09,VALID,0,VALID,97.2977,VALID,0,VALID,18.8463,VALID,32,VALID,0,
2013-11-20, 02:18:05,VALID,916.088,VALID,0,VALID,97.2977,VALID,0,VALID,18.8059,VALID,317,VALID,0,
2013-11-20, 02:19:05,VALID,916.035,VALID,0,VALID,97.29,VALID,0,VALID,18.7669,VALID,317,VALID,0,
2013-11-20, 02:20:05,VALID,916.02,VALID,0,VALID,97.29,VALID,0,VALID,18.7878,VALID,317,VALID,0,
2013-11-20, 02:21:05,VALID,915.971,VALID,0,VALID,97.2595,VALID,0,VALID,18.7864,VALID,317,VALID,0,
2013-11-20, 02:22:05,VALID,915.916,VALID,0,VALID,97.2595,VALID,0,VALID,18.8073,VALID,355,VALID,0,
2013-11-20, 02:23:05,VALID,915.898,VALID,0,VALID,97.229,VALID,0,VALID,18.7878,VALID,342,VALID,0,
2013-11-20, 02:24:05,VALID,915.867,VALID,0,VALID,97.1986,VALID,0,VALID,18.6694,VALID,283,VALID,0,
2013-11-20, 02:25:05,VALID,915.852,VALID,0,VALID,97.1071,VALID,0,VALID,18.6889,VALID,15,VALID,0,
2013-11-20, 02:26:05,VALID,915.885,VALID,0,VALID,97.0156,VALID,0,VALID,18.8073,VALID,15,VALID,0,
2013-11-20, 02:27:05,VALID,915.879,VALID,0,VALID,96.9317,VALID,0,VALID,18.8463,VALID,314,VALID,0,
2013-11-20, 02:28:05,VALID,915.88,VALID,0,VALID,96.825,VALID,0,VALID,18.8059,VALID,314,VALID,0,
2013-11-20, 02:29:05,VALID,915.876,VALID,0,VALID,96.7107,VALID,0,VALID,18.7878,VALID,312,VALID,0,
2013-11-20, 02:30:05,VALID,915.856,VALID,0,VALID,96.4515,VALID,0,VALID,18.7474,VALID,284,VALID,0,
2013-11-20, 02:31:05,VALID,915.809,VALID,0,VALID,96.177,VALID,0,VALID,18.8268,VALID,232,VALID,0,
2013-11-20, 02:32:05,VALID,915.804,VALID,0,VALID,95.9483,VALID,0,VALID,18.8658,VALID,251,VALID,0,
2013-11-20, 02:33:05,VALID,915.743,VALID,0,VALID,95.5367,VALID,0,VALID,18.8463,VALID,245,VALID,0,
2013-11-20, 02:34:05,VALID,915.721,VALID,0,VALID,95.1783,VALID,0.107441,VALID,18.8059,VALID,255,VALID,0,
2013-11-20, 02:35:05,VALID,915.697,VALID,0,VALID,94.3474,VALID,0.107441,VALID,18.8059,VALID,275,VALID,0,
2013-11-20, 02:36:05,VALID,915.706,VALID,0,VALID,93.4783,VALID,0,VALID,18.8059,VALID,293,VALID,0,
2013-11-20, 02:37:05,VALID,915.683,VALID,0,VALID,92.8989,VALID,0,VALID,18.8658,VALID,327,VALID,0,
2013-11-20, 02:38:05,VALID,915.64,VALID,0,VALID,91.5801,VALID,0,VALID,18.9243,VALID,284,VALID,0,
2013-11-20, 02:39:05,VALID,915.626,VALID,0,VALID,91.1151,VALID,0,VALID,19.0008,VALID,232,VALID,0,
2013-11-20, 02:40:05,VALID,915.642,VALID,0,VALID,90.1774,VALID,0,VALID,19.0608,VALID,236,VALID,0,
2013-11-20, 02:41:05,VALID,915.628,VALID,0,VALID,90.8254,VALID,0,VALID,19.0593,VALID,236,VALID,0,
2013-11-20, 02:42:05,VALID,915.588,VALID,0,VALID,91.5191,VALID,0,VALID,18.9814,VALID,282,VALID,0,
2013-11-20, 02:43:05,VALID,915.557,VALID,0,VALID,92.0604,VALID,0,VALID,18.9034,VALID,283,VALID,0,
2013-11-20, 02:44:05,VALID,915.582,VALID,0,VALID,92.5711,VALID,0.107441,VALID,18.8658,VALID,283,VALID,0,
2013-11-20, 02:45:05,VALID,915.576,VALID,0,VALID,92.9371,VALID,0,VALID,18.7474,VALID,283,VALID,0,
2013-11-20, 02:46:05,VALID,915.556,VALID,0,VALID,93.1581,VALID,0,VALID,18.7084,VALID,201,VALID,0,
2013-11-20, 02:47:05,VALID,915.566,VALID,0,VALID,93.1886,VALID,0,VALID,18.6708,VALID,234,VALID,0,
2013-11-20, 02:48:05,VALID,915.523,VALID,0,VALID,93.4631,VALID,0,VALID,18.6708,VALID,19,VALID,0,
2013-11-20, 02:49:05,VALID,915.467,VALID,0,VALID,93.7985,VALID,0,VALID,18.6513,VALID,335,VALID,0,
2013-11-20, 02:50:05,VALID,915.443,VALID,0,VALID,94.6752,VALID,0,VALID,18.6528,VALID,354,VALID,0,
2013-11-20, 02:51:05,VALID,915.482,VALID,0,VALID,95.1555,VALID,0,VALID,18.6333,INVALID,360,VALID,0,
2013-11-20, 02:52:05,VALID,915.464,VALID,0,VALID,95.4147,VALID,0,VALID,18.6124,VALID,354,VALID,0,
2013-11-20, 02:53:05,VALID,915.433,VALID,0,VALID,95.6053,VALID,0,VALID,18.5929,VALID,333,VALID,0,
2013-11-20, 02:54:05,VALID,915.477,VALID,0,VALID,95.7044,VALID,0,VALID,18.5525,VALID,310,VALID,0,
2013-11-20, 02:55:05,VALID,915.452,VALID,0,VALID,95.7654,VALID,0,VALID,18.5525,VALID,287,VALID,0,
2013-11-20, 02:56:05,VALID,915.444,VALID,0,VALID,95.8111,VALID,0,VALID,18.5539,VALID,287,VALID,0,
2013-11-20, 02:57:05,VALID,915.467,VALID,0,VALID,95.7882,VALID,0,VALID,18.5539,VALID,287,VALID,0,
2013-11-20, 02:58:05,VALID,915.467,VALID,0,VALID,95.6891,VALID,0,VALID,18.5539,VALID,286,VALID,0,
2013-11-20, 02:59:05,VALID,915.476,VALID,0,VALID,95.6205,VALID,0,VALID,18.533,VALID,319,VALID,0,
2013-11-20, 03:00:05,VALID,915.479,VALID,0,VALID,95.5671,VALID,0,VALID,18.5149,VALID,13,VALID,0,
2013-11-20, 03:01:05,VALID,915.436,VALID,0,VALID,95.5671,VALID,0,VALID,18.5539,VALID,29,VALID,0,
2013-11-20, 03:02:05,VALID,915.403,VALID,0,VALID,95.5214,VALID,0,VALID,18.5344,VALID,40,VALID,0,
2013-11-20, 03:03:04,VALID,915.395,VALID,0,VALID,95.4223,VALID,0,VALID,18.5344,VALID,64,VALID,0,
2013-11-20, 03:04:04,VALID,915.383,VALID,0,VALID,95.3613,VALID,0,VALID,18.5539,VALID,64,VALID,0,
2013-11-20, 03:05:04,VALID,915.404,VALID,0,VALID,95.3308,VALID,0,VALID,18.5163,VALID,64,VALID,0,
2013-11-20, 03:06:04,VALID,915.407,VALID,0,VALID,95.3613,VALID,0,VALID,18.455,VALID,60,VALID,0,
2013-11-20, 03:07:04,VALID,915.4,VALID,0,VALID,95.4223,VALID,0,VALID,18.4759,VALID,45,VALID,0,
2013-11-20, 03:08:04,VALID,915.456,VALID,0,VALID,95.4604,VALID,0,VALID,18.4564,VALID,29,VALID,0,
2013-11-20, 03:09:04,VALID,915.432,VALID,0,VALID,95.5671,VALID,0,VALID,18.4369,VALID,29,VALID,0,
2013-11-20, 03:10:04,VALID,915.425,VALID,0,VALID,95.6205,VALID,0,VALID,18.4369,VALID,29,VALID,0,
2013-11-20, 03:11:04,VALID,915.396,VALID,0,VALID,95.6357,VALID,0,VALID,18.4369,VALID,29,VALID,0,
2013-11-20, 03:12:04,VALID,915.429,VALID,0,VALID,95.6205,VALID,0,VALID,18.4369,VALID,29,VALID,0,
2013-11-20, 03:13:04,VALID,915.404,VALID,0,VALID,95.5824,VALID,0,VALID,18.4564,VALID,29,VALID,0,
2013-11-20, 03:14:04,VALID,915.363,VALID,0,VALID,95.6205,VALID,0,VALID,18.4954,VALID,29,VALID,0,
2013-11-20, 03:15:04,VALID,915.357,VALID,0,VALID,95.6053,VALID,0,VALID,18.455,VALID,29,VALID,0,
2013-11-20, 03:16:04,VALID,915.392,VALID,0,VALID,95.59,VALID,0,VALID,18.4578,VALID,29,VALID,0,
2013-11-20, 03:17:04,VALID,915.36,VALID,0,VALID,95.6281,VALID,0,VALID,18.4578,VALID,29,VALID,0,
2013-11-20, 03:18:04,VALID,915.388,VALID,0,VALID,95.6586,VALID,0,VALID,18.4578,VALID,29,VALID,0,
2013-11-20, 03:19:04,VALID,915.382,VALID,0,VALID,95.6967,VALID,0,VALID,18.4383,VALID,29,VALID,0,
2013-11-20, 03:20:04,VALID,915.362,VALID,0,VALID,95.7044,VALID,0,VALID,18.4188,VALID,23,VALID,0,
2013-11-20, 03:21:04,VALID,915.378,VALID,0,VALID,95.7654,VALID,0,VALID,18.3784,VALID,11,VALID,0,
2013-11-20, 03:22:04,VALID,915.387,VALID,0,VALID,95.9331,VALID,0,VALID,18.3993,VALID,7,VALID,0,
2013-11-20, 03:23:04,VALID,915.385,VALID,0,VALID,96.0093,VALID,0,VALID,18.3979,VALID,7,VALID,0,
2013-11-20, 03:24:04,VALID,915.351,VALID,0,VALID,96.0932,VALID,0,VALID,18.3993,VALID,7,VALID,0,
2013-11-20, 03:25:04,VALID,915.33,VALID,0,VALID,96.1465,VALID,0,VALID,18.3993,VALID,7,VALID,0,
2013-11-20, 03:26:04,VALID,915.31,VALID,0,VALID,96.238,VALID,0,VALID,18.4188,VALID,7,VALID,0,
2013-11-20, 03:27:04,VALID,915.325,VALID,0,VALID,96.3219,VALID,0,VALID,18.3798,VALID,7,VALID,0,
2013-11-20, 03:28:04,VALID,915.331,VALID,0,VALID,96.3829,VALID,0,VALID,18.4188,VALID,7,VALID,0,
2013-11-20, 03:29:04,VALID,915.309,VALID,0,VALID,96.4133,VALID,0,VALID,18.3993,VALID,7,VALID,0,
2013-11-20, 03:30:04,VALID,915.307,VALID,0,VALID,96.4743,VALID,0,VALID,18.3993,VALID,7,VALID,0,
2013-11-20, 03:31:04,VALID,915.351,VALID,0,VALID,96.5124,VALID,0,VALID,18.4174,VALID,7,VALID,0,
2013-11-20, 03:32:04,VALID,915.352,VALID,0,VALID,96.5506,VALID,0,VALID,18.4174,VALID,7,VALID,0,
2013-11-20, 03:33:04,VALID,915.356,VALID,0,VALID,96.5963,VALID,0,VALID,18.4174,VALID,7,VALID,0,
2013-11-20, 03:34:04,VALID,915.326,VALID,0,VALID,96.6344,VALID,0,VALID,18.4174,VALID,7,VALID,0,
2013-11-20, 03:35:04,VALID,915.366,VALID,0,VALID,96.6192,VALID,0,VALID,18.4174,VALID,7,VALID,0,
2013-11-20, 03:36:04,VALID,915.323,VALID,0,VALID,96.6725,VALID,0,VALID,18.4174,VALID,7,VALID,0,
2013-11-20, 03:37:04,VALID,915.361,VALID,0,VALID,96.6954,VALID,0,VALID,18.4369,VALID,7,VALID,0,
2013-11-20, 03:38:04,VALID,915.36,VALID,0,VALID,96.7259,VALID,0,VALID,18.4383,VALID,7,VALID,0,
2013-11-20, 03:39:04,VALID,915.334,VALID,0,VALID,96.7564,VALID,0,VALID,18.4578,VALID,7,VALID,0,
2013-11-20, 03:40:04,VALID,915.343,VALID,0,VALID,96.7793,VALID,0,VALID,18.4369,VALID,7,VALID,0,
2013-11-20, 03:41:04,VALID,915.362,VALID,0,VALID,96.7945,VALID,0,VALID,18.4369,VALID,7,VALID,0,
2013-11-20, 03:42:04,VALID,915.375,VALID,0,VALID,96.825,VALID,0,VALID,18.4174,VALID,7,VALID,0,
2013-11-20, 03:43:04,VALID,915.363,VALID,0,VALID,96.8326,VALID,0,VALID,18.4174,VALID,7,VALID,0,
2013-11-20, 03:44:04,VALID,915.413,VALID,0,VALID,96.8403,VALID,0,VALID,18.3979,VALID,7,VALID,0,
2013-11-20, 03:45:04,VALID,915.388,VALID,0,VALID,96.8707,VALID,0,VALID,18.3589,VALID,7,VALID,0,
2013-11-20, 03:46:04,VALID,915.407,VALID,0,VALID,96.8631,VALID,0,VALID,18.3589,VALID,7,VALID,0,
2013-11-20, 03:47:04,VALID,915.424,VALID,0,VALID,96.8784,VALID,0,VALID,18.3784,VALID,7,VALID,0,
2013-11-20, 03:48:04,VALID,915.485,VALID,0,VALID,96.9165,VALID,0,VALID,18.4174,VALID,7,VALID,0,
2013-11-20, 03:49:04,VALID,915.513,VALID,0,VALID,96.947,VALID,0,VALID,18.3979,VALID,7,VALID,0,
2013-11-20, 03:50:04,VALID,915.498,VALID,0,VALID,96.9317,VALID,0,VALID,18.4174,VALID,7,VALID,0,
2013-11-20, 03:51:04,VALID,915.465,VALID,0,VALID,96.9546,VALID,0,VALID,18.4174,VALID,7,VALID,0,
2013-11-20, 03:52:04,VALID,915.491,VALID,0,VALID,96.9698,VALID,0,VALID,18.3965,VALID,7,VALID,0,
2013-11-20, 03:53:04,VALID,915.471,VALID,0,VALID,96.9851,VALID,0,VALID,18.3784,VALID,7,VALID,0,
2013-11-20, 03:54:04,VALID,915.498,VALID,0,VALID,96.9927,VALID,0,VALID,18.3979,VALID,7,VALID,0,
2013-11-20, 03:55:04,VALID,915.503,VALID,0,VALID,97.008,VALID,0,VALID,18.3589,VALID,7,VALID,0,
2013-11-20, 03:56:04,VALID,915.519,VALID,0,VALID,97.0156,VALID,0,VALID,18.3589,VALID,7,VALID,0,
2013-11-20, 03:57:04,VALID,915.516,VALID,0,VALID,97.0461,VALID,0,VALID,18.3979,VALID,7,VALID,0,
2013-11-20, 03:58:04,VALID,915.517,VALID,0,VALID,97.0537,VALID,0,VALID,18.3784,VALID,7,VALID,0,
2013-11-20, 03:59:04,VALID,915.555,VALID,0,VALID,97.0537,VALID,0,VALID,18.3979,VALID,7,VALID,0,
2013-11-20, 04:00:04,VALID,915.573,VALID,0,VALID,97.0613,VALID,0,VALID,18.3575,VALID,7,VALID,0,